Regional Weather Roundup
Issued by NWS

Home | Current Version | Previous Version | Graphics & Text | Print | Product List | Glossary On
Versions: 1 2 3 4 5 6 7 8 9 10 11 12 13 14 15 16 17 18 19 20 21 22 23 24 25 26 27 28 29 30 31 32 33 34 35 36 37 38 39 40 41 42 43 44 45 46 47 48 49 50
365
ASUS45 KCYS 241310
RWRWY

WYOMING REGIONAL WEATHER ROUNDUP
NATIONAL WEATHER SERVICE CHEYENNE WY
700 AM MDT FRI MAR 24 2017

NOTE:  "FAIR" INDICATES FEW OR NO CLOUDS BELOW 12,000 FEET
WITH NO SIGNIFICANT WEATHER AND/OR OBSTRUCTIONS TO VISIBILITY.

WYZ001-241400-
YELLOWSTONE NATIONAL PARK

CITY           SKY/WX    TMP DP  RH WIND       PRES   REMARKS
LK YELLOWSTONE   N/A     14  12  92 CALM      30.16S
W YELLOWSTONE  NOT AVBL

$$
WYZ002>013-054>058-071-098>099-241400-
NORTHERN WYOMING

CITY           SKY/WX    TMP DP  RH WIND       PRES   REMARKS
JACKSON        CLEAR     23  21  93 CALM      30.17R
CODY           FAIR      36  27  69 SW10      30.10S WCI  28
GREYBULL       FAIR      30  29  96 SE3       30.13R FOG
WORLAND        FAIR      29  29 100 S3        30.12R
SHERIDAN       FAIR      31  26  82 CALM      30.09R
BUFFALO        FAIR      38  27  64 W6        30.11R WCI  33
GILLETTE       FAIR      33  31  92 W3        30.10R
HULETT         FAIR      32  32 100 S7        30.09R WCI  26
NEWCASTLE      FAIR      34  32  93 N9        30.09R WCI  26

$$
WYZ014>020-022>026-101>103-241400-
CENTRAL WYOMING

CITY           SKY/WX    TMP DP  RH WIND       PRES   REMARKS
BIG PINEY      FAIR      23  20  88 NE9       30.16R WCI  13
PINEDALE       PTSUNNY   21  21 100 CALM      30.17R
DUBOIS         FAIR      23  19  86 NW12      30.13R WCI  12
LANDER         FAIR      32  29  88 S3        30.13R
RIVERTON       CLOUDY    32  31  96 SW6       30.14R WCI  26
CASPER         CLOUDY    31  30  96 W5        30.13R WCI  26
DOUGLAS        FAIR      36  33  89 NW12      30.11R WCI  28

$$
WYZ021-027>030-104>119-241400-
SOUTHERN WYOMING

CITY           SKY/WX    TMP DP  RH WIND       PRES   REMARKS
EVANSTON       FAIR      27  22  81 S6        30.18S WCI  20
FORT BRIDGER   FAIR      32  31  95 W13       30.20R WCI  22
ROCK SPRINGS   FAIR      33  29  85 SW5       30.17R WCI  29
DIXON            N/A     36  29  76 N5        30.15R WCI  32
RAWLINS        CLOUDY    34  28  79 N13       30.14R WCI  25
SARATOGA       CLOUDY    34  30  86 NW7       30.12R WCI  28
LARAMIE        CLOUDY    31  28  89 N9        30.09R WCI  23
CHEYENNE       CLOUDY    34  31  88 N15G29    30.04R WCI  24
TORRINGTON     CLOUDY    40  35  83 N7        30.06R
PINE BLUFFS    CLOUDY    36  34  93 N21G31    30.02R WCI  24

$$




USA.gov is the U.S. government's official web portal to all federal, state and local government web resources and services.